Stations météo

Publicité
Cherbourg, France (7024): Température de l'air & dewpoint: 17.01.2017 05:00:00 - 23.01.2017 05:00:00 (CET)Cherbourg, France (7024): Température de l'air 5cm: 17.01.2017 05:00:00 - 23.01.2017 05:00:00 (CET)Cherbourg, France (7024): Température de l'air -20cm & Température de l'air -100cm: 17.01.2017 05:00:00 - 23.01.2017 05:00:00 (CET)Cherbourg, France (7024): Vitesse du vent & gusts: 17.01.2017 05:00:00 - 23.01.2017 05:00:00 (CET)Cherbourg, France (7024): Direction du vent: 17.01.2017 05:00:00 - 23.01.2017 05:00:00 (CET)Cherbourg, France (7024): reduced air pressure: 17.01.2017 05:00:00 - 23.01.2017 05:00:00 (CET)Cherbourg, France (7024): visibility: 17.01.2017 05:00:00 - 23.01.2017 05:00:00 (CET)Cherbourg, France (7024): Ensoleillement: 17.01.2017 05:00:00 - 23.01.2017 05:00:00 (CET)Cherbourg, France (7024): Quantités de précipitations: 17.01.2017 05:00:00 - 23.01.2017 05:00:00 (CET)
Date & Time tt [°C] td [°C] tt 5cm [°C] tt -20cm [°C] tt -100cm [°C] ff [km/h] ff [knt] fx [km/h] fx [knt] dd ppp [hPa] vv [km] sd [min] rr [mm]
23.01.2017 05:00:00 1,3 0,3 -2,4 4,4 7,4 9 5 11 6 SSE 1027,9 2,9 0 0,0
23.01.2017 04:00:00 2,0 0,4 -1,3 4,4 7,4 9 5 11 6 SE 1027,8 4,4 0 0,0
23.01.2017 03:00:00 2,3 0,2 -4,1 4,4 7,4 8 5 10 5 SE 1027,8 6 0 0,0
23.01.2017 02:00:00 2,8 0,0 -4,6 4,5 7,4 9 5 11 6 ESE 1028,0 9 0 0,0
23.01.2017 01:00:00 2,3 -0,3 -4,1 4,5 7,4 5 3 11 6 ESE 1028,2 8 0 0,0
23.01.2017 00:00:00 2,1 0,3 -2,6 4,5 7,4 7 4 10 5 SE 1028,1 8 0 0,0
22.01.2017 23:00:00 2,4 -0,2 -0,6 4,5 7,4 8 5 12 7 SE 1027,7 9 0 0,0
22.01.2017 22:00:00 2,1 0,2 0,1 4,5 7,4 11 6 14 8 SE 1027,6 7 0 0,0
22.01.2017 21:00:00 1,8 -0,5 -1,7 4,5 7,4 10 5 13 7 SE 1027,5 9 0 0,0
22.01.2017 20:00:00 2,4 -0,2 -0,3 4,5 7,4 6 4 13 7 SE 1027,2 10 0 0,0
22.01.2017 19:00:00 2,2 -1,1 -0,9 4,5 7,4 8 4 12 6 ESE 1026,8 13 0 0,0
22.01.2017 18:00:00 3,6 -1,4 0,5 4,4 7,5 8 4 10 6 ESE 1026,4 14 5 0,0
22.01.2017 17:00:00 5,9 -0,2 7,0 4,3 7,5 8 4 13 7 E 1025,9 13 60 0,0
22.01.2017 16:00:00 8,7 -5,2 11,5 4,2 7,5 9 5 11 6 E 1025,4 56 60 0,2
22.01.2017 15:00:00 9,2 -5,9 11,3 4,1 7,5 7 4 17 9 SE 1025,5 53 60 0,0
22.01.2017 14:00:00 8,0 -5,1 10,2 4,0 7,5 12 6 21 11 SE 1025,8 22 60 0,0
22.01.2017 13:00:00 7,1 -1,8 8,1 4,0 7,5 13 7 23 12 SSE 1026,2 14 60 0,0
22.01.2017 12:00:00 4,8 0,6 6,4 4,0 7,5 13 7 21 11 SSE 1026,9 6 60 0,0
22.01.2017 11:00:00 3,5 1,2 2,6 4,0 7,5 11 6 17 9 SE 1026,5 4,5 60 0,2
22.01.2017 10:00:00 1,6 0,1 -1,3 4,0 7,5 12 7 17 9 SSE 1026,5 2,8 28 0,0
22.01.2017 09:00:00 0,8 -0,7 -4,4 4,1 7,5 10 5 14 8 SE 1026,0 5 0 0,0
22.01.2017 08:00:00 0,1 -0,9 -4,2 4,1 7,5 6 3 13 7 SE 1025,4 4,1 0 0,0
22.01.2017 07:00:00 -0,1 -1,1 -2,4 4,1 7,5 9 5 14 8 SE 1025,2 2,7 0 0,0
22.01.2017 06:00:00 0,5 -1,0 -2,5 4,2 7,6 6 3 16 9 ESE 1025,5 4,5 0 0,0
22.01.2017 05:00:00 -0,5 -2,4 -3,6 4,3 7,6 11 6 16 8 ESE 1025,9 4,8 0 0,0
22.01.2017 04:00:00 -1,0 -3,0 -8,0 4,2 7,6 11 6 16 8 ESE 1026,1 3,6 0 0,0
22.01.2017 03:00:00 -1,6 -3,5 -7,1 4,3 7,6 2 1 11 6 E 1026,4 3,6 0 0,0
22.01.2017 02:00:00 -1,5 -3,9 -4,9 4,4 7,6 11 6 15 8 SE 1026,6 4,4 0 0,0
22.01.2017 01:00:00 -1,7 -5,0 -7,6 4,4 7,6 8 4 10 6 ESE 1026,8 5 0 0,0
22.01.2017 00:00:00 -2,8 -5,1 -8,6 4,5 7,6 6 3 7 4 SE 1027,0 5 0 0,0
21.01.2017 23:00:00 -3,0 -4,7 -8,6 4,5 7,6 3 2 5 3 WNW 1026,6 3,5 0 0,0
21.01.2017 22:00:00 -3,1 -5,4 -8,1 4,5 7,6 2 1 9 5 SSW 1026,4 3,0 0 0,0
21.01.2017 21:00:00 -3,2 -6,0 -6,9 4,5 7,6 7 4 10 6 SSW 1026,5 3,4 0 0,0
21.01.2017 20:00:00 -2,9 -5,5 -6,9 4,6 7,6 8 4 11 6 S 1026,4 2,4 0 0,0
21.01.2017 19:00:00 -2,7 -5,7 -6,1 4,6 7,7 7 4 10 5 S 1026,0 4,8 0 0,0
21.01.2017 18:00:00 -1,3 -5,0 -4,5 4,5 7,7 2 1 9 5 ESE 1025,7 5 3 0,0
21.01.2017 17:00:00 0,3 -4,7 1,4 4,5 7,7 7 4 11 6 SSE 1025,4 7 60 0,0
21.01.2017 16:00:00 2,1 -4,6 5,4 4,4 7,7 6 3 14 7 S 1025,3 9 60 0,0
21.01.2017 15:00:00 1,6 -4,3 4,0 4,4 7,7 8 4 17 9 SE 1025,5 8 60 0,0
21.01.2017 14:00:00 1,3 -3,6 4,3 4,4 7,7 9 5 17 9 E 1025,9 8 60 0,0
21.01.2017 13:00:00 0,8 -3,5 3,3 4,4 7,7 11 6 18 10 SSE 1026,5 7 60 0,0
21.01.2017 12:00:00 0,2 -3,9 2,1 4,4 7,7 10 5 15 8 SSE 1026,9 8 60 0,0
21.01.2017 11:00:00 -1,0 -4,5 -2,4 4,5 7,7 8 4 11 6 SSE 1027,1 7 57 0,0
21.01.2017 10:00:00 -3,8 -6,0 -6,5 4,5 7,7 8 4 11 6 S 1027,4 6 0 0,0
21.01.2017 09:00:00 -4,7 -7,0 -6,7 4,6 7,7 7 4 11 6 S 1027,4 6 0 0,0
21.01.2017 08:00:00 -3,6 -6,1 -8,1 4,6 7,7 8 4 11 6 SSE 1027,4 7 0 0,0
21.01.2017 07:00:00 -4,2 -6,3 -7,9 4,7 7,7 4 2 10 6 SSE 1027,5 7 0 0,0
21.01.2017 06:00:00 -4,2 -6,3 -7,4 4,7 7,7 7 4 10 5 S 1027,9 7 0 0,0
21.01.2017 05:00:00 -4,3 -6,4 -7,7 4,8 7,8 7 4 8 5 S 1028,1 7 0 0,0
21.01.2017 04:00:00 -3,8 -6,1 -6,8 4,8 7,8 7 4 12 6 SSE 1028,7 8 0 0,0
21.01.2017 03:00:00 -3,4 -6,2 -7,0 4,9 7,8 9 5 11 6 SE 1028,9 8 0 0,0
21.01.2017 02:00:00 -3,5 -6,0 -6,9 4,9 7,8 6 3 12 6 SSE 1029,2 9 0 0,0
21.01.2017 01:00:00 -3,2 -6,0 -4,8 5,0 7,8 9 5 18 10 SE 1029,3 9 0 0,0
21.01.2017 00:00:00 -2,7 -5,7 -3,9 5,1 7,8 11 6 20 11 SE 1029,5 10 0 0,0
20.01.2017 23:00:00 -2,4 -5,4 -3,4 5,1 7,8 15 8 22 12 SE 1029,5 9 0 0,0
20.01.2017 22:00:00 -2,2 -5,0 -3,4 5,1 7,8 13 7 20 11 SE 1029,8 10 0 0,0
20.01.2017 21:00:00 -1,2 -4,2 -2,5 5,1 7,8 11 6 19 10 SE 1029,6 11 0 0,0
20.01.2017 20:00:00 -0,9 -3,8 -2,5 5,2 7,8 12 6 20 11 E 1029,4 12 0 0,0
20.01.2017 19:00:00 -0,4 -3,6 -1,9 5,2 7,8 14 8 22 12 ESE 1029,2 13 0 0,0
20.01.2017 18:00:00 -0,2 -3,4 -1,3 5,2 7,8 15 8 31 17 E 1029,0 14 1 0,0
20.01.2017 17:00:00 1,0 -3,5 1,5 5,2 7,8 18 10 34 18 E 1029,3 18 60 0,0
20.01.2017 16:00:00 2,4 -2,7 4,0 5,1 7,8 19 10 32 17 E 1029,2 19 60 0,0
20.01.2017 15:00:00 2,9 -3,0 5,0 5,1 7,9 17 9 36 19 E 1029,3 19 60 0,0
20.01.2017 14:00:00 2,9 -3,0 5,1 5,1 7,9 22 12 36 19 E 1029,6 20 60 0,0
20.01.2017 13:00:00 2,9 -3,0 4,9 5,1 7,9 24 13 35 19 E 1030,5 20 60 0,0
20.01.2017 12:00:00 2,8 -2,9 4,2 5,1 7,9 23 12 37 20 E 1031,1 19 60 0,0
20.01.2017 11:00:00 2,5 -2,4 2,6 5,1 7,9 22 12 33 18 E 1031,4 19 60 0,0
20.01.2017 10:00:00 1,7 -1,7 -0,3 5,2 7,9 14 8 25 13 E 1031,3 17 32 0,0
20.01.2017 09:00:00 0,8 -2,3 -1,0 5,2 7,9 18 10 24 13 E 1031,3 17 0 0,0
20.01.2017 08:00:00 0,2 -2,5 -3,0 5,2 7,9 13 7 20 11 E 1031,4 15 0 0,0
20.01.2017 07:00:00 -0,8 -3,7 -3,0 5,4 7,9 10 5 15 8 E 1031,7 14 0 0,0
20.01.2017 06:00:00 -0,7 -3,6 -3,2 5,4 7,9 10 5 14 8 E 1031,8 14 0 0,0
20.01.2017 05:00:00 -0,8 -4,0 -4,0 5,5 7,9 10 5 14 8 E 1032,2 13 0 0,0
20.01.2017 04:00:00 -0,7 -3,4 -4,4 5,5 7,9 9 5 13 7 E 1032,7 11 0 0,0
20.01.2017 03:00:00 -0,9 -2,6 -5,4 5,6 7,9 7 4 13 7 ESE 1032,9 8 0 0,0
20.01.2017 02:00:00 -1,8 -3,7 -5,3 5,6 7,9 4 2 14 7 ESE 1033,2 7 0 0,0
20.01.2017 01:00:00 -1,1 -3,3 -3,5 5,6 8,0 5 3 17 9 SSE 1033,5 7 0 0,0
20.01.2017 00:00:00 1,1 -2,1 0,2 5,7 8,0 14 8 29 16 ESE 1033,4 10 0 0,0
19.01.2017 23:00:00 2,0 -2,0 1,0 5,7 8,0 20 11 37 20 E 1033,2 12 0 0,0
19.01.2017 22:00:00 3,6 -0,8 2,5 5,7 7,9 23 13 35 19 E 1033,1 18 0 0,0
19.01.2017 21:00:00 4,1 -1,7 2,7 5,7 8,0 21 11 34 19 E 1033,0 27 0 0,0
19.01.2017 20:00:00 4,4 -1,2 2,8 5,7 8,0 21 12 36 19 ENE 1033,0 20 0 0,0
19.01.2017 19:00:00 4,2 -1,8 2,8 5,7 8,0 23 12 40 21 ENE 1032,7 31 0 0,0
19.01.2017 18:00:00 4,0 -1,6 2,9 5,7 8,0 22 12 39 21 ENE 1032,7 20 0 0,0
19.01.2017 17:00:00 4,8 -1,7 5,1 5,7 8,0 22 12 40 22 ENE 1033,0 20 60 0,0
19.01.2017 16:00:00 5,4 -2,2 6,7 5,6 8,0 25 14 45 25 ENE 1033,0 20 60 0,0
19.01.2017 15:00:00 5,9 -0,8 7,7 5,6 8,0 24 13 45 24 ENE 1033,2 20 60 0,0
19.01.2017 14:00:00 5,9 -2,2 7,6 5,5 8,0 27 15 48 26 ENE 1033,6 35 60 0,0
19.01.2017 13:00:00 5,9 -2,0 7,2 5,5 8,0 26 14 48 26 ENE 1034,3 20 60 0,0
19.01.2017 12:00:00 5,5 -3,3 6,7 5,5 8,0 26 14 48 26 ENE 1034,8 20 60 0,0
19.01.2017 11:00:00 5,0 -3,3 4,9 5,5 8,0 24 13 42 23 ENE 1034,8 20 60 0,0
19.01.2017 10:00:00 4,3 -2,8 2,5 5,6 8,0 22 12 35 19 ENE 1034,8 39 33 0,0
19.01.2017 09:00:00 3,7 -3,8 2,4 5,6 8,1 21 11 36 20 ENE 1034,6 54 0 0,0
19.01.2017 08:00:00 3,7 -3,4 2,4 5,6 8,1 21 12 34 18 ENE 1034,6 59 0 0,0
19.01.2017 07:00:00 4,0 -3,8 2,1 5,6 8,1 21 11 35 19 NE 1034,5 60 0 0,0
19.01.2017 06:00:00 3,8 -3,5 2,2 5,6 8,0 18 10 32 17 NE 1034,6 47 0 0,0
19.01.2017 05:00:00 3,8 -3,7 2,2 5,7 8,1 18 10 31 17 NE 1035,1 52 0 0,0
19.01.2017 04:00:00 3,5 -3,8 2,1 5,7 8,1 17 9 29 16 ENE 1035,2 47 0 0,0
19.01.2017 03:00:00 3,5 -2,5 2,1 5,7 8,1 16 9 29 16 ENE 1035,4 37 0 0,0
19.01.2017 02:00:00 3,6 -2,8 1,9 5,8 8,1 16 9 26 14 ENE 1035,5 48 0 0,0
19.01.2017 01:00:00 3,6 -2,6 2,1 5,8 8,1 18 10 29 15 ENE 1035,7 53 0 0,0
19.01.2017 00:00:00 3,7 -2,7 2,4 5,8 8,1 18 10 36 19 ENE 1035,9 60 0 0,0
18.01.2017 23:00:00 3,6 -2,4 2,2 5,8 8,1 18 10 32 17 ENE 1036,0 60 0 0,0
18.01.2017 22:00:00 3,5 -2,7 1,9 5,9 8,1 18 10 34 18 ENE 1036,2 60 0 0,0
18.01.2017 21:00:00 3,5 -2,9 1,8 5,9 8,1 18 10 29 16 ENE 1036,3 60 0 0,0
18.01.2017 20:00:00 3,2 -3,2 1,6 5,9 8,1 17 9 35 19 ENE 1036,2 60 0 0,0
18.01.2017 19:00:00 3,1 -3,3 1,4 5,9 8,1 18 10 32 18 NE 1036,1 60 0 0,0
18.01.2017 18:00:00 2,9 -3,0 1,4 5,9 8,1 18 10 33 18 NE 1036,3 60 0 0,0
18.01.2017 17:00:00 3,6 -1,6 4,1 5,9 8,1 19 10 32 17 NE 1036,3 43 58 0,0
18.01.2017 16:00:00 4,2 -1,2 6,4 5,8 8,1 19 10 36 19 NE 1036,5 42 60 0,0
18.01.2017 15:00:00 4,2 -1,2 6,4 5,8 8,1 23 12 37 20 ENE 1036,4 20 60 0,0
18.01.2017 14:00:00 4,3 -0,7 6,4 5,8 8,1 17 9 33 18 NE 1036,8 20 60 0,0
18.01.2017 13:00:00 4,0 -0,6 5,2 5,8 8,1 21 12 34 18 ENE 1037,1 23 60 0,0
18.01.2017 12:00:00 3,4 -1,4 4,5 5,8 8,1 22 12 35 19 ENE 1037,3 20 60 0,0
18.01.2017 11:00:00 2,6 -1,4 2,0 5,9 8,1 15 8 27 14 ENE 1037,8 15 60 0,0
18.01.2017 10:00:00 0,7 -2,5 -2,5 6,0 8,2 8 4 15 8 E 1037,6 14 25 0,0
18.01.2017 09:00:00 -0,8 -3,3 -2,7 6,0 8,1 9 5 16 9 E 1037,5 15 0 0,0
18.01.2017 08:00:00 -0,6 -3,5 -2,3 6,0 8,1 10 6 18 10 E 1037,3 18 0 0,0
18.01.2017 07:00:00 -0,5 -3,4 -2,3 6,1 8,1 11 6 18 10 E 1036,9 18 0 0,0
18.01.2017 06:00:00 -0,4 -2,9 -3,0 6,2 8,1 12 6 19 10 E 1037,0 18 0 0,0
18.01.2017 05:00:00 -0,6 -3,3 -3,0 6,2 8,1 10 5 19 10 E 1037,2 18 0 0,0
18.01.2017 04:00:00 -0,7 -3,6 -2,5 6,3 8,1 10 5 16 9 E 1037,5 18 0 0,0
18.01.2017 03:00:00 -0,4 -3,4 -2,2 6,4 8,2 10 6 18 10 E 1037,4 18 0 0,0
18.01.2017 02:00:00 0,2 -2,8 -2,6 6,5 8,1 10 5 17 9 E 1037,2 17 0 0,0
18.01.2017 01:00:00 0,4 -4,3 -3,2 6,5 8,1 9 5 14 8 E 1037,2 30 0 0,0
18.01.2017 00:00:00 0,7 -5,1 -3,9 6,6 8,2 9 5 13 7 E 1037,1 48 0 0,0
17.01.2017 23:00:00 0,5 -3,6 -3,7 6,7 8,1 9 5 13 7 E 1037,0 24 0 0,0
17.01.2017 22:00:00 0,5 -2,6 -3,1 6,7 8,1 6 4 13 7 ENE 1037,1 16 0 0,0
17.01.2017 21:00:00 0,3 -3,4 -2,6 6,8 8,1 8 4 14 7 E 1037,0 35 0 0,0
17.01.2017 20:00:00 0,6 -3,1 -3,1 6,8 8,1 6 3 12 6 ENE 1037,0 35 0 0,0
17.01.2017 19:00:00 0,3 -2,9 -4,1 6,9 8,2 5 3 9 5 E 1036,9 26 0 0,0
17.01.2017 18:00:00 1,2 -3,1 -1,5 6,8 8,1 7 4 13 7 E 1036,7 32 0 0,0
17.01.2017 17:00:00 3,1 -2,6 3,3 6,8 8,1 10 5 18 10 E 1036,0 37 56 0,0
17.01.2017 16:00:00 3,9 -1,7 5,2 6,8 8,1 11 6 20 11 E 1036,0 20 58 0,0
17.01.2017 15:00:00 4,1 -1,5 6,4 6,8 8,1 13 7 21 11 E 1035,7 19 60 0,0
17.01.2017 14:00:00 4,7 -0,7 6,6 6,7 8,1 9 5 21 11 ESE 1035,7 19 60 0,0
17.01.2017 13:00:00 4,3 -1,9 6,2 6,8 8,2 12 6 20 11 ESE 1036,0 20 60 0,0
17.01.2017 12:00:00 4,0 -2,9 5,8 6,8 8,1 10 6 19 10 SE 1036,0 24 60 0,0
17.01.2017 11:00:00 3,5 -0,5 4,1 6,8 8,1 11 6 17 9 SSE 1035,9 18 60 0,0
17.01.2017 10:00:00 2,3 0,2 0,6 6,8 8,1 9 5 16 9 SSE 1035,7 13 38 0,0
17.01.2017 09:00:00 1,0 -0,3 0,4 6,9 8,1 10 6 15 8 SSE 1034,8 10 0 0,0
17.01.2017 08:00:00 1,1 -0,2 0,4 6,9 8,1 9 5 16 8 SSE 1034,0 12 0 0,0
17.01.2017 07:00:00 1,2 0,0 0,7 7,0 8,1 9 5 14 8 SSE 1033,7 10 0 0,0
17.01.2017 06:00:00 1,2 0,2 0,7 7,1 8,1 11 6 16 8 SSE 1033,2 8 0 0,0
17.01.2017 05:00:00 1,1 0,4 0,2 7,1 8,1 10 5 16 9 S 1033,0 6 0 0,2

tt = Température de l'air
td = dewpoint
tt 5cm = Température de l'air 5cm
tt -20cm = Température de l'air -20cm
tt -100cm = Température de l'air -100cm
ff = Vitesse du vent
fx = gusts
dd = Direction du vent
ppp = reduced air pressure
vv = visibility
sd = Ensoleillement
rr = Quantités de précipitations

stations d'obs. à proximité